GW5989 Weather Reports


time (UTC)temp
F
wind
direction
speed
knots
gust
knots
rain 1hr
in
rain 24hr
in
rain mn
in
humidity
%
barometer
mb
20260506215005 72 320 6.1 14.8 0.00 0.00 0.00 65 1011.6
20260506214508 74 23 7.8 14.8 0.00 0.00 0.00 64 1011.5
20260506214004 73 24 4.3 13.9 0.00 0.00 0.00 66 1011.6
20260506213507 73 33 7.8 12.2 0.00 0.00 0.00 66 1011.5
20260506213015 74 30 4.3 11.3 0.00 0.00 0.00 65 1011.5
20260506212505 74 26 5.2 13.9 0.00 0.00 0.00 66 1011.4
20260506212005 74 342 8.7 13.9 0.00 0.00 0.00 66 1011.5
20260506211521 74 17 6.1 12.2 0.00 0.00 0.00 67 1011.5
20260506211006 74 337 5.2 13.0 0.00 0.00 0.00 67 1011.5
20260506210508 75 14 8.7 13.0 0.00 0.00 0.00 68 1011.3
20260506210025 75 30 5.2 11.3 0.00 0.00 0.00 68 1011.5
20260506205500 74 5 3.5 9.6 0.00 0.00 0.00 67 1011.7
20260506205003 74 13 5.2 12.2 0.00 0.00 0.00 69 1011.8
20260506204511 74 335 5.2 12.2 0.00 0.00 0.00 69 1011.9
20260506204004 73 309 6.1 12.2 0.00 0.00 0.00 69 1011.9
20260506203506 74 18 4.3 13.0 0.00 0.00 0.00 69 1011.8
20260506203012 75 352 7.8 14.8 0.00 0.00 0.00 68 1011.9
20260506202504 76 282 5.2 13.9 0.00 0.00 0.00 69 1011.8
20260506202008 76 21 5.2 9.6 0.00 0.00 0.00 70 1011.5
20260506201519 76 360 4.3 10.4 0.00 0.00 0.00 69 1011.4
20260506201006 77 46 5.2 10.4 0.00 0.00 0.00 70 1011.3
20260506200508 78 68 5.2 10.4 0.00 0.00 0.00 71 1011.2
20260506200021 78 360 4.3 10.4 0.00 0.00 0.00 70 1011.2
20260506195506 78 27 7.0 9.6 0.00 0.00 0.00 70 1011.2
20260506195010 78 5 5.2 9.6 0.00 0.00 0.00 71 1011.2
20260506194514 78 304 3.5 8.7 0.00 0.00 0.00 70 1011.3
20260506194003 77 53 4.3 10.4 0.00 0.00 0.00 71 1011.2
20260506193503 77 15 4.3 10.4 0.00 0.00 0.00 73 1011.3
20260506193011 77 49 5.2 10.4 0.00 0.00 0.00 73 1011.3
20260506192508 77 48 5.2 9.6 0.00 0.00 0.00 72 1011.4
20260506192006 77 60 4.3 7.8 0.00 0.00 0.00 72 1011.5
20260506191516 77 45 4.3 7.8 0.00 0.00 0.00 71 1011.5
20260506191004 77 63 3.5 8.7 0.00 0.00 0.00 71 1011.5
20260506190509 77 340 4.3 8.7 0.00 0.00 0.00 70 1011.6
20260506190019 76 19 3.5 7.8 0.00 0.00 0.00 72 1011.5
20260506185505 76 61 4.3 7.8 0.00 0.00 0.00 72 1011.5
20260506185005 77 58 4.3 8.7 0.00 0.00 0.00 74 1011.4
20260506184521 76 32 5.2 7.8 0.00 0.00 0.00 75 1011.4
20260506184008 75 348 3.5 7.0 0.00 0.00 0.00 73 1011.5
20260506183504 75 48 3.5 8.7 0.00 0.00 0.00 73 1011.6
20260506183008 74 360 4.3 8.7 0.00 0.00 0.00 74 1011.6
20260506182504 74 34 4.3 7.8 0.00 0.00 0.00 77 1011.6
20260506182004 73 22 3.5 8.7 0.00 0.00 0.00 76 1011.5
20260506181512 73 44 3.5 8.7 0.00 0.00 0.00 75 1011.6
20260506181008 73 350 3.5 9.6 0.00 0.00 0.00 76 1011.7
20260506180512 72 352 4.3 9.6 0.00 0.00 0.00 78 1011.7
20260506180018 72 18 5.2 9.6 0.00 0.00 0.00 76 1011.9
20260506175506 72 80 5.2 9.6 0.00 0.00 0.00 78 1011.8
20260506175005 71 35 5.2 9.6 0.00 0.00 0.00 78 1011.9
20260506174525 71 5 4.3 10.4 0.00 0.00 0.00 78 1011.8
20260506174006 70 53 7.8 10.4 0.00 0.00 0.00 79 1011.8
20260506173507 70 42 5.2 11.3 0.00 0.00 0.00 80 1011.9
20260506173028 70 69 6.1 12.2 0.00 0.00 0.00 81 1011.8
20260506172505 69 51 5.2 12.2 0.00 0.00 0.00 79 1011.9
20260506172003 70 48 7.0 11.3 0.00 0.00 0.00 80 1012.2
20260506171512 69 52 4.3 10.4 0.00 0.00 0.00 80 1012.3
20260506171003 69 42 7.0 11.3 0.00 0.00 0.00 82 1012.2
20260506170506 68 19 6.1 12.2 0.00 0.00 0.00 82 1012.3
20260506165504 67 29 5.2 12.2 0.00 0.00 0.00 83 1012.4
20260506165007 67 352 7.0 12.2 0.00 0.00 0.00 84 1012.7
20260506164521 67 46 5.2 15.6 0.00 0.00 0.00 84 1012.9
20260506164009 67 23 5.2 15.6 0.00 0.00 0.00 83 1012.9
20260506163509 68 322 9.6 15.6 0.00 0.00 0.00 81 1013.0
20260506163048 70 352 7.8 15.6 0.00 0.00 0.00 80 1012.8
20260506162510 71 26 8.7 17.4 0.00 0.00 0.00 77 1012.8
20260506162013 75 26 8.7 17.4 0.00 0.00 0.00 74 1012.6
20260506161525 78 67 5.2 9.6 0.00 0.00 0.00 83 1012.3
20260506161003 78 38 2.6 4.3 0.00 0.00 0.00 84 1012.2
20260506160510 78 37 1.7 4.3 0.00 0.00 0.00 85 1012.3
20260506160020 78 48 2.6 4.3 0.00 0.00 0.00 85 1012.4
20260506155504 77 52 2.6 4.3 0.00 0.00 0.00 85 1012.3
20260506155007 77 32 2.6 4.3 0.00 0.00 0.00 86 1012.2
20260506154009 77 360 1.7 3.5 0.00 0.00 0.00 86 1011.9
20260506153509 77 57 1.7 3.5 0.00 0.00 0.00 85 1011.8
20260506152506 77 66 2.6 3.5 0.00 0.00 0.00 87 1011.5
20260506152009 77 67 1.7 3.5 0.00 0.00 0.00 87 1011.3
20260506151524 77 40 2.6 4.3 0.00 0.00 0.00 87 1011.2
20260506151010 76 76 2.6 4.3 0.00 0.00 0.00 87 1011.2
20260506150508 77 71 2.6 5.2 0.00 0.00 0.00 87 1011.1
20260506150016 77 113 2.6 5.2 0.00 0.00 0.00 87 1010.9
20260506145510 76 98 0.9 3.5 0.00 0.00 0.00 87 1010.9
20260506145007 76 100 1.7 4.3 0.00 0.00 0.00 88 1010.8
20260506144517 76 99 2.6 4.3 0.00 0.00 0.00 88 1010.7
20260506144004 76 94 2.6 3.5 0.00 0.00 0.00 88 1010.7
20260506143509 76 82 1.7 4.3 0.00 0.00 0.00 88 1010.4
20260506143028 76 123 2.6 4.3 0.00 0.00 0.00 89 1010.4
20260506142508 76 93 1.7 3.5 0.00 0.00 0.00 89 1010.5
20260506142010 75 58 0.9 2.6 0.00 0.00 0.00 89 1010.6
20260506141510 75 58 0.9 1.7 0.00 0.00 0.00 90 1010.9
20260506141004 75 58 0.9 1.7 0.00 0.00 0.00 89 1010.8
20260506140505 75 58 0.0 1.7 0.00 0.00 0.00 89 1010.7
20260506140013 75 117 0.9 1.7 0.00 0.00 0.00 89 1010.3
20260506135505 75 117 0.0 1.7 0.00 0.00 0.00 89 1010.1
20260506135008 75 117 0.9 2.6 0.00 0.00 0.00 89 1009.9
20260506134515 75 99 0.9 2.6 0.00 0.00 0.00 90 1009.9
20260506134009 75 109 0.0 3.5 0.00 0.00 0.00 90 1009.8
20260506133503 75 134 0.9 3.5 0.00 0.00 0.00 90 1009.7
20260506133018 75 88 1.7 5.2 0.00 0.00 0.00 90 1009.8
20260506132508 75 92 0.9 5.2 0.00 0.00 0.00 90 1009.7
20260506132009 75 110 1.7 3.5 0.00 0.00 0.00 90 1009.7
20260506131522 75 117 1.7 3.5 0.00 0.00 0.00 90 1009.6
20260506131007 75 98 1.7 3.5 0.00 0.00 0.00 90 1009.6
20260506130504 75 117 1.7 3.5 0.00 0.00 0.00 91 1009.6
20260506130007 75 118 0.0 3.5 0.00 0.00 0.00 91 1009.6
20260506125505 74 118 0.9 3.5 0.00 0.00 0.00 91 1009.6
20260506125004 74 107 1.7 2.6 0.00 0.00 0.00 91 1009.6
20260506124512 74 98 0.9 3.5 0.00 0.00 0.00 91 1009.6
20260506124005 74 111 1.7 3.5 0.00 0.00 0.00 90 1009.6
20260506123505 74 110 0.0 0.0 0.00 0.00 0.00 90 1009.7
20260506123017 74 110 0.0 0.0 0.00 0.00 0.00 90 1009.7
20260506122508 74 110 0.0 0.0 0.00 0.00 0.00 90 1009.7
20260506122006 74 110 0.0 0.0 0.00 0.00 0.00 90 1009.7
20260506121519 74 110 0.0 0.0 0.00 0.00 0.00 90 1009.6
20260506121010 74 110 0.0 1.7 0.00 0.00 0.00 90 1009.6
20260506120511 74 110 0.0 1.7 0.00 0.00 0.00 90 1009.6
20260506120027 74 110 0.0 1.7 0.00 0.00 0.00 90 1009.4
20260506115506 74 110 0.0 1.7 0.00 0.00 0.00 90 1009.3
20260506115006 74 110 0.0 1.7 0.00 0.00 0.00 90 1009.5
20260506114512 74 110 0.0 1.7 0.00 0.00 0.00 90 1009.4
20260506114005 74 110 0.0 1.7 0.00 0.00 0.00 89 1009.4
20260506113507 74 110 0.0 1.7 0.00 0.00 0.00 89 1009.4
20260506113017 74 110 0.0 1.7 0.00 0.00 0.00 89 1009.3
20260506112506 74 110 0.0 2.6 0.00 0.00 0.00 89 1009.3
20260506112004 74 110 0.9 2.6 0.00 0.00 0.00 89 1009.3
20260506111517 74 123 0.0 2.6 0.00 0.00 0.00 89 1009.3
20260506111008 75 155 0.9 3.5 0.00 0.00 0.00 89 1009.3
20260506110509 75 133 0.0 3.5 0.00 0.00 0.00 89 1009.2
20260506110026 75 135 0.9 3.5 0.00 0.00 0.00 89 1009.3
20260506105508 75 157 1.7 5.2 0.00 0.00 0.00 88 1009.3
20260506105009 75 141 0.0 5.2 0.00 0.00 0.00 88 1009.2
20260506104525 75 271 0.0 2.6 0.00 0.00 0.00 88 1009.2
20260506104004 75 214 0.0 6.1 0.00 0.00 0.00 88 1009.0
20260506103504 75 149 0.9 6.1 0.00 0.00 0.00 88 1008.9
20260506103014 75 132 0.0 4.3 0.00 0.00 0.00 88 1008.9
20260506102504 75 183 1.7 5.2 0.00 0.00 0.00 88 1008.9
20260506102004 75 163 0.9 7.8 0.00 0.00 0.00 88 1008.9
20260506101519 75 170 0.9 7.8 0.00 0.00 0.00 89 1008.9
20260506100021 75 325 0.9 5.2 0.00 0.00 0.00 89 1008.6
20260506095508 75 186 1.7 5.2 0.00 0.00 0.00 89 1008.6
20260506095009 75 174 1.7 4.3 0.00 0.00 0.00 89 1008.5
20260506094527 75 188 0.9 4.3 0.00 0.00 0.00 89 1008.5
20260506094009 75 193 0.9 6.1 0.00 0.00 0.00 89 1008.5
20260506093512 75 177 1.7 6.1 0.00 0.00 0.00 89 1008.3
20260506093015 75 192 0.9 6.1 0.00 0.00 0.00 89 1008.3
20260506092505 75 273 0.9 6.1 0.00 0.00 0.00 89 1008.3
20260506092004 75 131 0.9 4.3 0.00 0.00 0.00 89 1008.3
20260506091516 75 109 1.7 4.3 0.00 0.00 0.00 89 1008.3
20260506091006 75 215 0.9 2.6 0.00 0.00 0.00 89 1008.2
20260506090507 75 235 0.0 3.5 0.00 0.00 0.00 89 1008.2
20260506085507 75 70 0.9 5.2 0.00 0.00 0.00 89 1008.2
20260506085007 75 209 0.9 4.3 0.00 0.00 0.00 89 1008.3
20260506084521 75 181 0.9 4.3 0.00 0.00 0.00 89 1008.2
20260506084007 74 223 0.0 3.5 0.00 0.00 0.00 89 1008.2
20260506083509 75 91 1.7 3.5 0.00 0.00 0.00 89 1008.3
20260506083027 75 175 1.7 3.5 0.00 0.00 0.00 89 1008.3
20260506082508 75 184 0.9 7.0 0.00 0.00 0.00 89 1008.2
20260506082004 75 151 0.9 8.7 0.00 0.00 0.00 89 1008.2
20260506081516 75 207 2.6 8.7 0.00 0.00 0.00 89 1008.3
20260506081007 75 166 0.9 3.5 0.00 0.00 0.00 89 1008.3
20260506080504 75 223 1.7 3.5 0.00 0.00 0.00 89 1008.4
20260506073512 75 117 1.7 7.0 0.00 0.00 0.00 88 1008.7
20260506073025 75 180 0.9 3.5 0.00 0.00 0.00 88 1008.7
20260506072512 75 168 0.9 5.2 0.00 0.00 0.00 88 1008.8
20260506072008 75 169 1.7 6.1 0.00 0.00 0.00 88 1008.7
20260506071530 75 195 1.7 7.0 0.00 0.00 0.00 88 1008.8
20260506071004 75 132 1.7 7.0 0.00 0.00 0.00 88 1008.8
20260506070504 75 150 1.7 7.8 0.00 0.00 0.00 88 1008.8
20260506062009 75 183 1.7 5.2 0.00 0.00 0.00 88 1009.0
20260506061533 75 191 1.7 5.2 0.00 0.00 0.00 88 1008.9
20260506061010 75 116 1.7 5.2 0.00 0.00 0.00 88 1008.8
20260506060506 75 215 1.7 6.1 0.00 0.00 0.00 88 1008.8
20260506051005 75 159 0.0 2.6 0.00 0.00 0.00 88 1009.0
20260506050506 75 148 0.9 3.5 0.00 0.00 0.00 88 1009.0
20260506045003 75 161 0.9 2.6 0.00 0.00 0.00 87 1009.0
20260506044524 75 148 0.9 4.3 0.00 0.00 0.00 87 1008.9
20260506044005 76 154 0.9 5.2 0.00 0.00 0.00 87 1009.0
20260506043508 76 163 0.9 7.0 0.00 0.00 0.00 87 1008.9
20260506043008 76 140 1.7 7.8 0.00 0.00 0.00 86 1008.8
20260506042507 76 93 1.7 10.4 0.00 0.00 0.00 86 1008.9
20260506042004 76 89 1.7 10.4 0.00 0.00 0.00 86 1008.9
20260506041508 76 107 1.7 8.7 0.00 0.00 0.00 86 1008.8
20260506041006 76 96 2.6 8.7 0.00 0.00 0.00 86 1008.8
20260506040504 76 128 4.3 8.7 0.00 0.00 0.00 86 1008.7
20260506040033 76 113 2.6 6.1 0.00 0.00 0.00 86 1008.6
20260506035504 76 127 2.6 8.7 0.00 0.00 0.00 86 1008.6
20260506035005 76 164 2.6 8.7 0.00 0.00 0.00 86 1008.5
20260506034513 76 165 1.7 7.8 0.00 0.00 0.00 85 1008.4
20260506034005 76 258 3.5 7.0 0.00 0.00 0.00 85 1008.4
20260506033505 76 136 3.5 5.2 0.00 0.00 0.00 85 1008.3
20260506033019 76 130 2.6 7.8 0.00 0.00 0.00 85 1008.3
20260506032505 76 99 0.9 7.8 0.00 0.00 0.00 84 1008.2
20260506032001 77 126 3.5 7.8 0.00 0.00 0.00 84 1008.2
20260506031514 77 141 3.5 7.8 0.00 0.00 0.00 84 1008.0
20260506031006 77 122 3.5 7.8 0.00 0.00 0.00 84 1007.9
20260506030503 77 130 5.2 7.8 0.00 0.00 0.00 84 1007.8
20260506030009 77 144 4.3 8.7 0.00 0.00 0.00 83 1007.7
20260506025504 77 124 3.5 8.7 0.00 0.00 0.00 83 1007.7
20260506025004 77 148 3.5 7.8 0.00 0.00 0.00 83 1007.6
20260506024520 77 154 3.5 8.7 0.00 0.00 0.00 83 1007.5
20260506024005 78 139 3.5 8.7 0.00 0.00 0.00 82 1007.3
20260506023505 78 215 6.1 8.7 0.00 0.00 0.00 82 1007.3
20260506023019 78 134 5.2 9.6 0.00 0.00 0.00 82 1007.3
20260506022506 78 146 4.3 10.4 0.00 0.00 0.00 82 1007.1
20260506022005 78 130 5.2 10.4 0.00 0.00 0.00 82 1007.1
20260506021522 78 137 4.3 8.7 0.00 0.00 0.00 82 1007.0
20260506021009 78 118 4.3 7.0 0.00 0.00 0.00 81 1007.0
20260506020508 78 153 1.7 5.2 0.00 0.00 0.00 81 1007.0
20260506020008 78 121 0.9 4.3 0.00 0.00 0.00 81 1006.8
20260506015504 78 130 1.7 4.3 0.00 0.00 0.00 80 1006.7
20260506015004 78 119 0.9 4.3 0.00 0.00 0.00 80 1006.7
20260506014514 78 55 1.7 5.2 0.00 0.00 0.00 79 1006.7
20260506014004 79 137 1.7 4.3 0.00 0.00 0.00 79 1006.7
20260506013507 79 117 1.7 3.5 0.00 0.00 0.00 78 1006.8
20260506013014 79 125 1.7 2.6 0.00 0.00 0.00 78 1006.8
20260506012505 79 101 0.9 2.6 0.00 0.00 0.00 77 1006.7
20260506012009 80 107 0.9 1.7 0.00 0.00 0.00 77 1006.7
20260506011523 80 156 0.9 2.6 0.00 0.00 0.00 76 1006.8
20260506011005 80 152 0.9 3.5 0.00 0.00 0.00 76 1006.8
20260506010510 81 136 0.9 3.5 0.00 0.00 0.00 75 1006.8
20260506010022 81 132 1.7 4.3 0.00 0.00 0.00 75 1006.7
20260506005504 81 130 2.6 5.2 0.00 0.00 0.00 74 1006.7
20260506005006 81 147 3.5 5.2 0.00 0.00 0.00 74 1006.6
20260506004520 82 117 2.6 4.3 0.00 0.00 0.00 73 1006.6
20260506004006 82 133 0.9 3.5 0.00 0.00 0.00 73 1006.5
20260506003507 82 119 1.7 3.5 0.00 0.00 0.00 72 1006.4
20260506003016 83 98 1.7 6.1 0.00 0.00 0.00 71 1006.4
20260506002504 83 246 1.7 7.8 0.00 0.00 0.00 71 1006.5
20260506002005 83 144 2.6 7.8 0.00 0.00 0.00 70 1006.2
20260506001520 83 185 0.9 4.3 0.00 0.00 0.00 70 1006.5
20260506001011 83 205 0.9 6.1 0.00 0.00 0.00 70 1006.5
20260506000511 83 148 0.9 6.1 0.00 0.00 0.00 70 1006.4
20260506000023 83 297 0.0 7.8 0.00 0.00 0.00 71 1006.3
20260505235508 83 132 1.7 7.8 0.00 0.00 0.00 71 1006.1
20260505235007 83 114 3.5 7.0 0.00 0.00 0.00 70 1006.1
20260505234509 83 142 2.6 7.0 0.00 0.00 0.00 70 1006.1
20260505234005 83 160 0.9 7.0 0.00 0.00 0.00 70 1006.3
20260505233505 83 120 3.5 6.1 0.00 0.00 0.00 71 1006.3
20260505233017 83 178 2.6 7.8 0.00 0.00 0.00 70 1006.2
20260505232507 84 92 5.2 7.8 0.00 0.00 0.00 69 1006.2
20260505232005 84 142 1.7 7.0 0.00 0.00 0.00 69 1006.3
20260505231528 84 170 2.6 6.1 0.00 0.00 0.00 68 1006.2
20260505231004 84 78 2.6 6.1 0.00 0.00 0.00 68 1006.1
20260505230506 84 178 0.9 7.0 0.00 0.00 0.00 69 1006.0
20260505230028 84 219 1.7 9.6 0.00 0.00 0.00 69 1006.0
20260505225509 84 142 3.5 9.6 0.00 0.00 0.00 68 1006.0
20260505225011 84 296 2.6 7.8 0.00 0.00 0.00 67 1005.9
20260505224524 85 115 2.6 7.8 0.00 0.00 0.00 66 1006.0
20260505224007 85 222 2.6 6.1 0.00 0.00 0.00 67 1006.0
20260505223507 84 167 3.5 8.7 0.00 0.00 0.00 67 1006.0
20260505223014 84 191 2.6 9.6 0.00 0.00 0.00 68 1006.3
20260505222506 84 190 4.3 9.6 0.00 0.00 0.00 67 1006.0
20260505222006 84 146 3.5 8.7 0.00 0.00 0.00 68 1006.1
20260505221516 84 111 4.3 8.7 0.00 0.00 0.00 67 1006.1
20260505221006 85 146 2.6 9.6 0.00 0.00 0.00 67 1006.2
20260505220504 84 280 2.6 9.6 0.00 0.00 0.00 68 1006.2
20260505220019 84 260 5.2 8.7 0.00 0.00 0.00 67 1006.2
20260505215505 85 126 3.5 6.1 0.00 0.00 0.00 65 1006.2